This demonstration page uses our WeatherBlox Daily Observations layout. Learn more.

Left ArrowRight Arrow

44.8408, -93.29828

Hourly Observations for August 31, 2021

Temp ( °F °C ) Dew Point ( °F °C ) Humidity (%) Winds ( mph kmh ) Pressure ( in mb ) Visibility ( mi km ) Precip ( " mm )
12:53 am 00:53 Clear 68 20 59 15 73 73 Calm 29.90 1012 10 16 0.00 0.00
1:53 am 01:53 Clear 66 18.9 59 15 78 78 Calm 29.86 1011 10 16 0.00 0.00
2:53 am 02:53 Clear 66 18.9 58 14.4 75 75 Calm 29.85 1011 10 16 0.00 0.00
3:53 am 03:53 Clear 66 18.9 57 13.9 73 73 E 3 6 29.88 1012 10 16 0.00 0.00
4:53 am 04:53 Clear 64 17.8 57 13.9 78 78 ENE 3 6 29.89 1012 10 16 0.00 0.00
5:53 am 05:53 Partly Cloudy 64 17.8 56 13.3 75 75 ENE 5 7 29.88 1012 10 16 0.00 0.00
6:53 am 06:53 Cloudy 64 17.8 56 13.3 75 75 E 6 9 29.88 1012 10 16 0.00 0.00
7:53 am 07:53 Mostly Cloudy 64 17.8 56 13.3 75 75 ENE 5 7 29.90 1013 10 16 0.00 0.00
8:53 am 08:53 Mostly Cloudy 68 20 57 13.9 68 68 ENE 7 11 29.91 1013 10 16 0.00 0.00
9:53 am 09:53 Mostly Cloudy 69 20.6 57 13.9 66 66 E 9 15 29.91 1013 10 16 0.00 0.00
10:53 am 10:53 Mostly Cloudy 72 22.2 57 13.9 59 59 E 8 13 29.92 1013 10 16 0.00 0.00
11:53 am 11:53 Mostly Sunny 75 23.9 58 14.4 55 55 E 7 11 29.92 1013 10 16 0.00 0.00
12:53 pm 12:53 Mostly Sunny 78 25.6 58 14.4 50 50 ENE 12 19 29.90 1013 10 16 0.00 0.00
1:53 pm 13:53 Mostly Sunny 78 25.6 57 13.9 48 48 E 9 15 29.88 1012 10 16 0.00 0.00
2:53 pm 14:53 Mostly Sunny 77 25 56 13.3 48 48 E 9 15 29.88 1012 10 16 0.00 0.00
3:53 pm 15:53 Partly Cloudy 79 26.1 55 12.8 44 44 ENE 9 15 29.87 1012 10 16 0.00 0.00
4:53 pm 16:53 Partly Cloudy 77 25 54 12.2 45 45 ESE 10 17 29.87 1012 10 16 0.00 0.00
5:53 pm 17:53 Partly Cloudy 77 25 53 11.7 43 43 E 10 17 29.88 1012 10 16 0.00 0.00
6:53 pm 18:53 Mostly Sunny 76 24.4 54 12.2 47 47 E 12 19 29.89 1012 10 16 0.00 0.00
7:53 pm 19:53 Clear 73 22.8 55 12.8 53 53 E 8 13 29.90 1013 10 16 0.00 0.00
8:53 pm 20:53 Clear 71 21.7 56 13.3 59 59 ENE 6 9 29.91 1013 10 16 0.00 0.00
9:53 pm 21:53 Clear 70 21.1 56 13.3 61 61 ENE 7 11 29.92 1013 10 16 0.00 0.00
10:53 pm 22:53 Clear 69 20.6 57 13.9 66 66 E 6 9 29.93 1014 10 16 0.00 0.00
11:53 pm 23:53 Clear 67 19.4 57 13.9 71 71 ENE 5 7 29.94 1014 10 16 0.00 0.00

Powered by AerisWeather